�������l�o���
Date,Time,MP-1(��Sv/h),MP-2(��Sv/h),MP-3(��Sv/h),MP-4(��Sv/h),MP-5(��Sv/h),MP-6(��Sv/h),MP-7(��Sv/h),����,����(m/s),���J
2017/06/29,00:00,0.356,0.225,0.372,0.346,0.328,0.183,0.111,�k�k��,1.4,��
2017/06/29,00:10,0.360,0.225,0.377,0.350,0.331,0.181,0.110,�k��,1.6,��
2017/06/29,00:20,0.358,0.225,0.375,0.348,0.331,0.182,0.110,�k�k��,1.8,��
2017/06/29,00:30,0.359,0.226,0.378,0.351,0.330,0.182,0.110,�k�k��,1.6,��
2017/06/29,00:40,0.358,0.225,0.373,0.347,0.330,0.183,0.110,�k�k��,1.8,��
2017/06/29,00:50,0.358,0.225,0.377,0.351,0.327,0.182,0.110,�k�k��,1.7,��
2017/06/29,01:00,0.358,0.226,0.373,0.348,0.330,0.182,0.109,�k�k��,1.3,��
2017/06/29,01:10,0.358,0.224,0.376,0.349,0.330,0.182,0.110,�k�k��,1.2,��
2017/06/29,01:20,0.357,0.225,0.374,0.348,0.331,0.182,0.110,�k��,1.5,��
2017/06/29,01:30,0.355,0.225,0.376,0.349,0.330,0.182,0.110,�k��,1.3,��
2017/06/29,01:40,0.358,0.225,0.373,0.346,0.329,0.182,0.110,�k�k��,2.3,��
2017/06/29,01:50,0.356,0.224,0.376,0.349,0.329,0.181,0.110,�k�k��,1.8,��
2017/06/29,02:00,0.359,0.225,0.373,0.348,0.332,0.182,0.110,�k�k��,1.4,��
2017/06/29,02:10,0.356,0.225,0.376,0.349,0.327,0.182,0.109,�k�k��,1.4,��
2017/06/29,02:20,0.359,0.225,0.374,0.348,0.331,0.183,0.110,�k,1.4,��
2017/06/29,02:30,0.355,0.225,0.375,0.349,0.328,0.182,0.110,�k,2.1,��
2017/06/29,02:40,0.360,0.226,0.375,0.350,0.332,0.182,0.111,�k,0.5,��
2017/06/29,02:50,0.357,0.225,0.376,0.348,0.329,0.182,0.110,�k,1.6,��
2017/06/29,03:00,0.359,0.224,0.375,0.352,0.329,0.181,0.111,�k,1.7,��
2017/06/29,03:10,0.356,0.224,0.373,0.347,0.328,0.182,0.109,�k,1.5,��
2017/06/29,03:20,0.358,0.224,0.376,0.350,0.330,0.181,0.110,�k,1.4,��
2017/06/29,03:30,0.357,0.225,0.374,0.348,0.330,0.183,0.109,�k,1.1,��
2017/06/29,03:40,0.356,0.225,0.376,0.351,0.328,0.181,0.109,�k�k��,0.5,��
2017/06/29,03:50,0.359,0.225,0.374,0.346,0.333,0.182,0.110,-,CALM,��
2017/06/29,04:00,0.355,0.224,0.376,0.349,0.329,0.182,0.111,-,CALM,��
2017/06/29,04:10,0.357,0.225,0.373,0.350,0.332,0.182,0.110,-,CALM,��
2017/06/29,04:20,0.355,0.225,0.377,0.348,0.330,0.182,0.109,��쐼,0.9,��
2017/06/29,04:30,0.358,0.227,0.373,0.350,0.330,0.182,0.110,-,CALM,��
2017/06/29,04:40,0.356,0.224,0.375,0.347,0.330,0.182,0.110,-,CALM,��
2017/06/29,04:50,0.359,0.225,0.376,0.351,0.328,0.180,0.110,�k,0.9,��
2017/06/29,05:00,0.358,0.224,0.374,0.348,0.332,0.182,0.111,�k,0.7,��
2017/06/29,05:10,0.358,0.225,0.374,0.349,0.329,0.181,0.110,-,CALM,��
2017/06/29,05:20,0.357,0.224,0.374,0.347,0.332,0.182,0.110,-,CALM,��
2017/06/29,05:30,0.356,0.225,0.376,0.349,0.330,0.182,0.110,-,CALM,��
2017/06/29,05:40,0.360,0.224,0.373,0.349,0.330,0.182,0.111,-,CALM,��
2017/06/29,05:50,0.356,0.224,0.378,0.347,0.330,0.182,0.109,-,CALM,��
2017/06/29,06:00,0.359,0.224,0.374,0.349,0.327,0.181,0.109,-,CALM,��
2017/06/29,06:10,0.354,0.225,0.376,0.346,0.331,0.181,0.110,-,CALM,��
2017/06/29,06:20,0.356,0.224,0.376,0.349,0.329,0.181,0.110,-,CALM,��
2017/06/29,06:30,0.357,0.223,0.372,0.346,0.330,0.182,0.110,-,CALM,��
2017/06/29,06:40,0.355,0.225,0.375,0.349,0.330,0.181,0.109,���k��,0.6,��
2017/06/29,06:50,0.358,0.224,0.373,0.347,0.329,0.180,0.109,��쐼,0.8,��
2017/06/29,07:00,0.354,0.224,0.375,0.348,0.331,0.182,0.110,-,CALM,��
2017/06/29,07:10,0.359,0.223,0.373,0.348,0.328,0.182,0.110,�쐼,1.1,��
2017/06/29,07:20,0.355,0.226,0.376,0.347,0.330,0.182,0.110,��,1.1,��
2017/06/29,07:30,0.358,0.224,0.373,0.351,0.331,0.181,0.111,��쓌,1.4,��
2017/06/29,07:40,0.358,0.225,0.374,0.346,0.327,0.182,0.110,��쓌,1.4,��
2017/06/29,07:50,0.355,0.226,0.374,0.350,0.332,0.182,0.111,��쓌,0.7,��
2017/06/29,08:00,0.360,0.224,0.373,0.348,0.328,0.182,0.111,�쓌,0.5,��
2017/06/29,08:10,0.355,0.226,0.377,0.349,0.329,0.182,0.109,��쓌,0.6,��
2017/06/29,08:20,0.359,0.223,0.374,0.350,0.331,0.182,0.110,-,CALM,��
2017/06/29,08:30,0.357,0.226,0.377,0.346,0.328,0.182,0.110,��,0.5,��
2017/06/29,08:40,0.359,0.223,0.374,0.349,0.329,0.182,0.109,��,0.8,��
2017/06/29,08:50,0.359,0.226,0.374,0.347,0.331,0.181,0.109,-,CALM,��
2017/06/29,09:00,0.356,0.225,0.376,0.349,0.327,0.182,0.109,-,CALM,��
2017/06/29,09:10,0.359,0.224,0.371,0.347,0.331,0.182,0.109,-,CALM,��
2017/06/29,09:20,0.357,0.226,0.375,0.344,0.330,0.181,0.109,-,CALM,��
2017/06/29,09:30,0.355,0.225,0.375,0.350,0.326,0.182,0.108,��,0.5,��
2017/06/29,09:40,0.358,0.223,0.371,0.348,0.326,0.182,0.109,��쓌,1.3,��
2017/06/29,09:50,0.355,0.224,0.374,0.345,0.330,0.181,0.110,���쓌,1.6,��
2017/06/29,10:00,0.354,0.225,0.373,0.343,0.327,0.181,0.109,��쓌,1.4,��
2017/06/29,10:10,0.358,0.224,0.371,0.343,0.329,0.181,0.109,��쓌,1.9,��
2017/06/29,10:20,0.358,0.224,0.368,0.348,0.324,0.179,0.108,�쓌,2.4,��
2017/06/29,10:30,0.354,0.222,0.371,0.349,0.324,0.179,0.109,���쓌,2.0,��
2017/06/29,10:40,0.354,0.225,0.377,0.347,0.330,0.181,0.110,���쓌,1.9,��
2017/06/29,10:50,0.359,0.224,0.373,0.345,0.331,0.181,0.107,���쓌,2.2,��
2017/06/29,11:00,0.356,0.223,0.371,0.345,0.328,0.181,0.106,���쓌,2.3,��
2017/06/29,11:10,0.355,0.223,0.370,0.343,0.327,0.180,0.106,�쓌,1.4,��
2017/06/29,11:20,0.353,0.222,0.370,0.348,0.326,0.182,0.108,��쓌,1.3,��
2017/06/29,11:30,0.359,0.224,0.371,0.349,0.329,0.182,0.107,�쓌,2.5,��
2017/06/29,11:40,0.357,0.224,0.376,0.347,0.331,0.181,0.107,�쓌,2.3,��
2017/06/29,11:50,0.355,0.223,0.374,0.346,0.330,0.180,0.108,�쓌,2.2,��
2017/06/29,12:00,0.352,0.224,0.372,0.344,0.328,0.181,0.108,��쓌,2.9,��
2017/06/29,12:10,0.358,0.222,0.371,0.350,0.326,0.180,0.108,��쓌,2.8,��
2017/06/29,12:20,0.358,0.225,0.374,0.349,0.324,0.181,0.108,��쓌,2.6,��
2017/06/29,12:30,0.356,0.224,0.377,0.346,0.325,0.182,0.108,�쓌,2.6,��
2017/06/29,12:40,0.354,0.224,0.373,0.345,0.329,0.181,0.108,�쓌,2.8,��
2017/06/29,12:50,0.357,0.223,0.372,0.346,0.330,0.182,0.108,�쓌,3.0,��
2017/06/29,13:00,0.360,0.222,0.370,0.351,0.330,0.181,0.107,�쓌,2.5,��
2017/06/29,13:10,0.356,0.223,0.372,0.349,0.328,0.183,0.108,�쓌,2.8,��
2017/06/29,13:20,0.354,0.224,0.376,0.346,0.327,0.180,0.108,��쓌,3.0,��
2017/06/29,13:30,0.353,0.224,0.375,0.345,0.326,0.180,0.109,��쓌,2.4,��
2017/06/29,13:40,0.358,0.223,0.373,0.349,0.326,0.180,0.108,��,2.1,��
2017/06/29,13:50,0.357,0.223,0.372,0.349,0.326,0.181,0.109,��쓌,2.4,��
2017/06/29,14:00,0.354,0.225,0.371,0.347,0.332,0.181,0.110,��쓌,3.3,��
2017/06/29,14:10,0.355,0.225,0.378,0.348,0.332,0.181,0.108,��쓌,3.1,��
2017/06/29,14:20,0.359,0.224,0.374,0.352,0.328,0.181,0.109,��쓌,2.8,��
2017/06/29,14:30,0.357,0.222,0.372,0.348,0.327,0.181,0.108,��,1.9,��
2017/06/29,14:40,0.357,0.225,0.374,0.346,0.329,0.180,0.109,��쓌,2.2,��
2017/06/29,14:50,0.359,0.225,0.377,0.352,0.330,0.181,0.109,��쓌,2.8,��
2017/06/29,15:00,0.358,0.222,0.376,0.349,0.327,0.181,0.110,��쓌,2.4,��
2017/06/29,15:10,0.356,0.224,0.376,0.347,0.329,0.179,0.109,��,2.3,��
2017/06/29,15:20,0.358,0.225,0.376,0.350,0.331,0.182,0.109,��쓌,2.2,��
2017/06/29,15:30,0.357,0.223,0.373,0.348,0.328,0.181,0.108,��,2.7,��
2017/06/29,15:40,0.355,0.225,0.376,0.348,0.329,0.181,0.106,��쓌,3.0,��
2017/06/29,15:50,0.358,0.225,0.377,0.352,0.331,0.181,0.107,��,2.7,��
2017/06/29,16:00,0.358,0.224,0.372,0.347,0.328,0.180,0.107,��,2.5,��
2017/06/29,16:10,0.355,0.224,0.376,0.349,0.329,0.180,0.107,��,3.4,��
2017/06/29,16:20,0.360,0.224,0.375,0.351,0.331,0.181,0.107,��,4.0,��
2017/06/29,16:30,0.357,0.224,0.373,0.346,0.328,0.181,0.108,��,3.7,��
2017/06/29,16:40,0.356,0.225,0.376,0.352,0.330,0.181,0.107,��,4.3,��
2017/06/29,16:50,0.358,0.223,0.373,0.349,0.331,0.183,0.108,��,3.8,��
2017/06/29,17:00,0.355,0.225,0.376,0.348,0.327,0.181,0.107,��,3.9,��
2017/06/29,17:10,0.357,0.225,0.375,0.350,0.331,0.182,0.108,��,3.1,��
2017/06/29,17:20,0.358,0.224,0.374,0.347,0.329,0.182,0.107,��,2.7,��
2017/06/29,17:30,0.355,0.225,0.378,0.349,0.326,0.181,0.107,��,3.6,��
2017/06/29,17:40,0.360,0.224,0.373,0.348,0.331,0.182,0.108,��,1.8,��
2017/06/29,17:50,0.357,0.225,0.375,0.348,0.329,0.181,0.107,��쐼,1.3,��
2017/06/29,18:00,0.359,0.224,0.375,0.349,0.329,0.182,0.108,��,2.1,��
2017/06/29,18:10,0.359,0.226,0.373,0.346,0.331,0.181,0.108,��,0.8,��
2017/06/29,18:20,0.354,0.225,0.377,0.349,0.326,0.181,0.107,��,1.9,��
2017/06/29,18:30,0.359,0.223,0.374,0.348,0.332,0.183,0.107,��쐼,1.6,��
2017/06/29,18:40,0.356,0.224,0.376,0.349,0.328,0.181,0.107,��쐼,1.4,��
2017/06/29,18:50,0.358,0.224,0.374,0.349,0.328,0.182,0.108,��쐼,0.9,��
2017/06/29,19:00,0.358,0.226,0.377,0.348,0.329,0.182,0.107,��쐼,1.6,��
2017/06/29,19:10,0.357,0.224,0.375,0.349,0.327,0.181,0.108,��쐼,4.1,��
2017/06/29,19:20,0.359,0.224,0.374,0.347,0.331,0.182,0.108,��쐼,4.6,��
2017/06/29,19:30,0.355,0.225,0.375,0.352,0.328,0.181,0.108,��쐼,6.4,��
2017/06/29,19:40,0.360,0.225,0.374,0.346,0.329,0.182,0.107,��쐼,5.9,��
2017/06/29,19:50,0.358,0.226,0.378,0.349,0.330,0.181,0.107,��쐼,6.5,��
2017/06/29,20:00,0.357,0.223,0.374,0.347,0.327,0.181,0.108,��쐼,5.9,��
2017/06/29,20:10,0.359,0.225,0.376,0.350,0.331,0.182,0.107,��,4.0,��
2017/06/29,20:20,0.357,0.225,0.376,0.349,0.327,0.182,0.108,��쐼,3.3,��
2017/06/29,20:30,0.359,0.225,0.376,0.348,0.331,0.182,0.108,��쐼,4.5,��
2017/06/29,20:40,0.356,0.224,0.376,0.350,0.329,0.181,0.108,��쐼,3.3,��
2017/06/29,20:50,0.359,0.225,0.374,0.347,0.329,0.182,0.108,��쐼,2.2,��
2017/06/29,21:00,0.357,0.223,0.378,0.350,0.330,0.180,0.109,��쐼,1.9,��
2017/06/29,21:10,0.358,0.224,0.374,0.347,0.327,0.182,0.108,��쐼,2.3,��
2017/06/29,21:20,0.360,0.225,0.377,0.350,0.332,0.182,0.108,��쐼,2.5,��
2017/06/29,21:30,0.356,0.226,0.374,0.349,0.328,0.181,0.109,��쐼,1.5,��
2017/06/29,21:40,0.360,0.225,0.377,0.349,0.330,0.183,0.108,-,CALM,��
2017/06/29,21:50,0.356,0.224,0.375,0.349,0.331,0.181,0.108,-,CALM,��
2017/06/29,22:00,0.358,0.226,0.374,0.347,0.329,0.182,0.108,�k,1.4,��
2017/06/29,22:10,0.358,0.225,0.377,0.352,0.333,0.182,0.109,�k�k��,1.1,��
2017/06/29,22:20,0.356,0.226,0.375,0.347,0.328,0.183,0.109,-,CALM,��
2017/06/29,22:30,0.361,0.225,0.377,0.351,0.331,0.181,0.108,�k��,0.7,��
2017/06/29,22:40,0.356,0.225,0.374,0.348,0.328,0.181,0.109,-,CALM,��
2017/06/29,22:50,0.360,0.224,0.378,0.348,0.331,0.182,0.109,-,CALM,��
2017/06/29,23:00,0.358,0.225,0.375,0.347,0.328,0.181,0.108,-,CALM,��
2017/06/29,23:10,0.359,0.226,0.377,0.348,0.330,0.182,0.108,�쐼,0.6,��
2017/06/29,23:20,0.358,0.225,0.376,0.349,0.331,0.181,0.109,��,1.2,��
2017/06/29,23:30,0.357,0.224,0.375,0.349,0.328,0.183,0.108,��,0.8,��
2017/06/29,23:40,0.360,0.226,0.378,0.350,0.331,0.183,0.108,��,0.6,��
2017/06/29,23:50,0.356,0.224,0.374,0.349,0.328,0.181,0.108,��쓌,0.6,��
